Tracking 18945 objects as of 19-Jan-2018
HD Live streaming from Space Station
objects crossing your sky now

COSMOS 2252

Track COSMOS 2252 now!
10-day predictions
COSMOS 2252 is classified as:


NORAD ID: 22687
Int'l Code: 1993-038A
Perigee: 1,409.8 km
Apogee: 1,423.6 km
Inclination: 82.6 °
Period: 114.0 minutes
Semi major axis: 7787 km
RCS: 1.1207 m2 (large)
Launch date: June 24, 1993
Source: Commonwealth of Independent States (former USSR) (CIS)
Launch site: PLESETSK MISSILE AND SPACE COMPLEX (PKMTR)
aabbcc
Your satellite tracking list
Your tracking list is empty




NASA's NSSDC Master Catalog

Two Line Element Set (TLE):
1 22687U 93038A   18019.02557508  .00000012  00000-0  56009-5 0  9997
2 22687  82.5810  30.0912 0008889 109.5146 278.4835 12.63248084133029
Source of the keplerian elements: AFSPC